Theta_e
302 302 301 304 306 306 306 305 304 304 304 306 307 307 307 306 308 310 312 310 310 309 311 312 311 314 312 314 317 318 322 323 323 322 323 321 321 320 319 319 319 320 320 323 332
302 302 301 303 305 305 305 305 305 305 306 308 308 308 308 307 312 314 310 309 309 309 315 312 314 315 313 312 316 319 321 322 323 323 322 322 321 320 320 319 319 319 320 323 337
302 303 302 303 304 304 305 305 306 306 307 308 308 309 309 306 312 314 308 309 308 308 312 314 313 315 314 313 313 316 319 319 321 322 322 321 321 319 320 321 321 321 321 324 335
302 302 303 304 305 305 306 306 306 307 308 308 309 309 310 311 315 310 309 309 308 308 309 313 313 315 317 317 314 315 316 316 317 318 320 321 321 321 320 320 320 320 320 321 330
306 302 302 303 305 305 307 307 307 307 308 309 309 310 310 313 312 310 310 310 309 310 312 313 313 313 314 315 316 317 316 315 314 315 315 318 320 320 321 320 320 320 320 321 322
307 303 301 301 303 305 306 307 307 308 308 309 309 309 311 314 311 312 311 311 311 311 312 312 313 313 313 314 314 314 315 316 316 316 315 316 316 316 317 319 320 320 321 321 321
308 305 301 300 301 303 306 307 307 307 308 309 309 309 311 312 311 312 312 312 311 311 311 312 312 313 314 315 314 314 315 315 315 315 317 316 318 318 316 316 318 319 320 321 321
310 308 304 302 302 302 304 307 308 308 308 307 308 309 312 310 310 312 312 313 312 311 311 311 311 312 314 315 315 316 316 317 316 316 316 317 318 319 317 316 316 317 317 319 320
310 309 307 303 303 302 304 307 308 308 308 307 309 311 312 310 310 311 311 311 310 312 311 310 312 313 314 317 317 317 319 318 317 317 317 319 319 319 317 318 318 318 318 318 319
309 310 307 303 302 303 307 308 308 308 307 309 308 311 311 310 309 310 310 311 310 311 312 311 312 314 315 315 315 314 315 315 316 317 316 318 319 318 318 319 319 319 321 320 320
309 309 305 303 303 305 308 309 311 312 309 309 309 310 310 310 309 310 310 311 311 311 313 312 313 314 314 314 314 315 315 315 315 315 316 317 319 319 319 319 320 320 320 322 323
309 308 304 303 304 307 308 309 308 307 309 309 309 309 309 309 310 310 310 311 311 312 312 313 314 313 313 314 314 315 315 315 314 314 314 317 317 319 319 319 319 319 320 321 322
310 308 305 305 307 308 308 307 306 307 310 310 310 310 310 309 310 310 310 310 311 312 313 314 314 314 314 315 316 316 315 314 313 313 313 314 317 316 317 318 318 318 319 320 321
310 306 305 306 308 307 308 307 307 308 313 311 311 310 310 309 310 309 310 310 311 313 313 314 314 314 314 316 316 316 314 314 313 313 313 313 315 317 317 318 318 318 319 320 321
310 305 305 306 306 309 306 306 307 309 314 310 310 309 309 309 310 311 310 311 312 312 312 313 313 315 316 316 315 315 315 313 313 314 313 313 314 315 316 317 318 320 319 319 321
310 305 305 306 307 307 307 306 309 314 313 309 310 310 309 309 311 311 311 311 311 313 314 314 314 315 316 316 316 316 314 314 314 313 316 314 313 314 316 317 318 320 319 320 320
308 304 305 306 306 305 305 308 313 312 310 310 309 309 309 311 312 312 312 313 314 315 315 314 314 314 315 317 316 315 315 318 315 315 315 313 315 315 317 316 317 319 319 319 320
306 304 306 306 301 305 308 311 312 310 309 310 309 308 310 310 312 312 313 314 313 314 316 315 316 315 315 315 314 315 315 318 317 315 315 313 313 314 314 315 316 316 317 319 320
306 304 308 302 302 306 309 310 310 310 309 309 308 309 309 309 311 312 313 314 313 314 315 314 314 312 312 312 312 313 316 314 317 319 319 315 314 315 315 314 315 317 318 320 320
303 305 307 300 302 307 309 309 309 308 307 307 308 308 309 310 312 312 313 312 312 312 312 313 315 312 312 312 313 314 314 318 320 320 320 316 316 315 315 316 315 316 317 318 319
304 306 304 300 303 306 311 307 305 304 306 308 308 308 309 311 312 312 312 312 311 311 311 312 314 313 313 314 314 315 317 318 318 319 319 320 317 316 317 317 317 316 316 317 318
304 309 303 301 306 305 306 304 303 306 306 306 307 309 309 310 312 310 312 311 310 311 313 312 315 316 314 313 313 313 314 316 320 319 320 321 319 317 317 318 317 317 315 315 316
303 304 303 303 305 306 305 305 304 305 306 306 307 308 309 309 311 311 312 309 309 310 312 311 315 317 317 317 315 314 314 313 315 317 318 320 318 317 318 318 318 319 317 316 316
302 306 304 303 303 304 306 306 306 304 304 305 307 307 309 309 308 311 310 309 308 309 309 310 312 314 318 316 314 317 315 314 315 322 317 316 315 317 317 317 318 317 318 318 319
302 305 302 306 305 304 305 305 306 307 305 305 308 308 308 309 309 309 310 308 307 308 309 311 315 315 315 315 315 315 316 316 317 316 319 316 316 315 315 317 318 316 316 318 320
302 302 302 303 303 305 305 307 306 306 306 309 309 309 308 309 309 309 309 309 309 309 310 310 315 314 315 314 314 316 314 315 316 316 316 316 317 315 315 314 315 315 315 316 319
300 300 299 304 304 306 306 305 305 305 306 306 307 306 307 308 308 307 307 307 308 307 308 310 314 315 314 315 316 318 314 312 314 312 314 316 315 314 318 318 318 317 318 317 317
Wind_Speed
26 25 24 19 18 19 20 19 18 17 17 19 20 20 17 10 6 6 5 4 3 8 8 5 5 5 10 14 20 15 14 21 26 26 20 7 13 18 17 18 13 17 21 8 6
27 26 24 17 17 19 21 23 23 17 16 16 15 16 15 9 14 8 5 5 5 7 4 3 5 8 12 16 14 17 17 29 21 20 20 21 20 22 13 15 16 17 18 14 10
27 24 23 17 15 17 19 21 20 17 15 15 18 17 17 8 3 5 5 7 7 8 6 4 3 7 14 14 24 21 27 22 21 19 19 23 26 21 20 21 22 19 19 16 14
26 25 22 17 13 15 16 15 14 13 13 13 12 11 13 11 3 3 9 10 10 10 4 3 6 11 10 14 17 24 27 25 29 30 22 21 24 25 28 29 21 19 19 14 17
27 24 21 18 13 13 14 13 12 11 11 11 10 9 8 1 5 7 9 9 7 4 2 4 7 11 15 10 16 22 23 28 24 19 24 30 30 26 33 27 27 30 26 20 20
29 26 22 20 14 11 12 12 12 11 11 10 10 6 5 4 5 6 5 5 4 4 5 5 5 8 15 15 16 17 18 18 20 24 26 28 29 27 44 31 31 28 28 30 28
30 29 26 23 18 12 11 12 13 13 13 10 11 10 5 3 3 3 6 4 6 6 8 9 10 9 6 11 13 18 19 20 24 27 25 26 27 35 38 26 27 27 36 37 34
33 31 30 27 21 13 11 12 17 11 12 12 13 7 8 3 8 7 6 7 11 8 8 10 10 14 16 13 16 18 19 19 18 24 24 25 36 31 34 37 35 32 34 33 33
36 34 32 28 22 12 10 13 13 14 6 8 8 3 7 2 10 6 6 8 10 8 7 8 7 15 15 13 16 16 17 21 19 14 14 21 33 24 35 33 24 27 33 36 35
37 35 32 27 18 10 9 13 14 8 2 10 3 5 6 3 11 5 6 6 11 9 14 11 11 14 13 13 17 17 17 19 19 15 22 22 27 21 26 8 17 26 24 26 32
38 35 31 24 13 7 10 10 10 3 5 11 16 15 14 7 9 8 10 10 6 10 14 16 15 18 20 20 22 22 23 24 21 18 21 25 24 21 18 23 23 23 24 24 24
38 36 28 18 8 8 10 7 6 8 12 15 13 14 15 6 12 17 6 10 11 16 19 15 21 24 21 20 24 25 24 27 21 21 19 26 30 26 21 23 25 24 23 25 23
39 36 23 12 8 7 5 8 11 10 8 4 2 3 4 6 12 15 7 16 13 18 16 18 21 20 18 22 21 22 22 22 22 21 20 21 30 29 26 27 29 32 31 29 27
38 35 19 9 4 9 4 17 16 4 5 5 3 3 4 12 12 10 9 11 14 20 14 15 15 10 15 18 18 19 15 20 20 19 16 19 22 27 27 29 29 31 34 35 28
38 33 16 6 4 7 14 18 9 1 5 4 3 0 9 14 17 5 11 10 17 16 14 22 16 16 17 16 13 16 16 16 18 21 22 26 18 21 24 28 28 23 32 37 30
39 32 10 8 8 11 15 16 3 5 4 2 2 8 13 20 6 10 14 14 15 15 15 20 21 16 15 12 13 14 12 17 18 17 17 24 23 22 21 23 24 21 28 30 32
40 28 5 9 12 18 16 6 5 5 3 2 6 14 18 13 14 10 17 10 6 7 7 15 17 18 10 14 7 9 10 8 11 12 17 18 14 18 19 20 21 22 19 25 27
40 19 4 12 20 13 6 7 5 3 8 12 13 21 12 8 9 13 12 10 4 6 10 6 3 8 5 4 6 11 8 8 12 13 13 11 15 19 21 22 23 22 31 23 23
38 8 5 20 14 8 9 4 7 9 8 12 19 10 6 6 9 9 14 10 4 3 5 10 6 5 15 17 15 13 16 17 20 24 16 16 20 13 19 21 21 20 21 22 21
33 3 7 22 11 5 6 5 5 7 13 11 9 6 11 14 11 11 11 3 5 3 6 5 11 13 6 7 15 18 9 7 4 6 10 11 15 11 6 16 22 22 24 27 21
20 3 8 20 10 9 3 6 10 11 9 8 10 14 13 12 10 11 7 12 6 4 7 12 7 10 16 17 14 7 10 5 9 9 9 11 5 8 4 11 9 21 30 29 27
13 4 14 14 4 5 7 8 9 9 10 9 8 10 10 9 7 9 11 5 13 14 9 12 5 13 21 22 18 17 18 14 7 12 9 9 9 11 10 6 6 5 16 23 24
14 5 10 11 5 7 8 5 6 10 10 6 7 6 11 10 7 10 15 7 13 12 4 1 5 8 9 4 3 6 13 13 17 8 17 14 8 11 6 4 9 8 5 11 14
9 5 4 7 5 8 9 5 9 10 10 6 13 14 11 10 13 11 18 9 9 17 25 22 6 13 16 17 13 17 16 14 12 8 17 20 23 18 10 9 6 8 7 7 11
8 4 3 7 5 11 8 5 11 10 5 13 5 8 12 6 18 12 13 22 18 18 5 4 6 15 19 25 25 25 22 19 18 19 20 20 24 18 15 12 15 13 13 10 9
8 7 6 10 9 9 0 7 11 11 7 7 9 17 18 14 17 26 21 14 5 6 3 3 5 15 22 24 23 18 15 16 16 18 22 26 33 18 24 30 26 26 23 20 15
7 5 2 6 7 6 5 7 9 16 11 13 14 14 18 19 25 36 35 32 18 8 4 4 4 6 9 12 19 10 4 4 7 7 12 11 19 19 20 18 15 18 17 21 22
Wind_Direction
12 7 4 7 10 6 1 357 356 357 360 360 356 349 346 351 1 39 69 85 73 23 24 321 247 223 197 222 218 234 241 243 246 248 244 242 279 248 250 259 232 224 243 243 244
14 10 6 4 2 358 354 351 352 7 9 21 16 4 358 39 76 79 66 43 24 5 22 349 236 205 206 221 217 218 231 247 261 262 260 249 246 246 240 231 237 235 237 228 213
15 11 7 2 358 356 353 351 354 4 11 18 13 14 20 98 105 41 10 19 24 11 319 287 254 215 228 226 219 231 246 254 252 271 274 265 260 243 256 245 241 230 223 217 220
13 11 5 358 353 351 352 352 353 359 358 2 12 19 31 51 5 341 350 352 356 349 271 265 238 234 242 226 228 246 255 265 269 272 270 254 267 259 252 251 250 235 241 232 226
10 10 3 354 346 347 345 343 338 338 344 351 357 13 31 301 24 326 341 356 354 346 246 246 264 266 256 255 251 248 255 261 268 264 268 264 264 265 260 251 252 253 242 235 236
6 5 359 352 342 331 330 329 321 317 309 322 335 340 352 279 341 341 315 303 289 286 283 255 281 286 287 274 258 271 280 272 267 262 263 264 263 266 255 250 252 251 244 245 237
4 360 355 347 340 328 323 322 312 298 286 294 308 327 270 328 356 19 23 334 287 264 273 279 273 259 308 270 277 268 274 267 258 252 253 258 261 249 252 253 247 244 243 247 244
0 356 352 345 338 326 317 322 320 304 291 277 297 291 258 278 335 338 320 334 331 307 270 278 265 264 268 272 269 260 261 271 268 243 245 233 256 251 253 242 242 240 243 245 243
356 353 351 345 338 332 328 335 323 317 302 311 306 258 256 287 340 294 315 319 321 292 284 273 267 254 261 256 266 240 262 276 285 271 264 251 252 258 259 257 246 237 239 238 240
354 352 351 346 344 344 350 345 339 332 294 329 287 252 224 272 346 295 294 311 315 278 278 246 245 250 241 249 258 292 290 280 275 265 268 253 261 241 255 236 263 234 238 235 236
355 353 350 349 354 10 6 358 345 279 286 279 282 277 287 291 309 311 287 292 283 272 275 278 244 247 252 257 260 273 276 274 275 283 270 263 261 257 255 261 256 254 244 242 235
355 354 353 354 14 23 29 30 6 312 298 296 276 257 252 266 299 308 265 288 281 287 293 264 248 259 266 272 270 264 260 263 273 272 269 274 262 255 243 245 250 253 251 244 238
354 354 356 3 46 30 40 8 334 319 270 314 274 242 192 267 296 305 266 297 278 288 282 271 273 305 273 262 262 250 250 263 272 282 270 264 270 256 249 246 251 252 249 247 241
354 352 359 2 19 4 338 339 334 274 274 118 165 146 208 313 289 297 296 299 282 283 288 279 286 264 266 258 252 260 245 262 268 271 269 253 260 256 239 241 243 240 242 240 234
353 351 359 360 353 342 322 332 338 298 287 89 116 241 310 311 311 135 320 302 281 288 289 267 279 280 276 270 267 275 274 265 277 274 272 264 256 261 254 234 238 234 231 235 230
352 349 356 347 348 336 335 330 323 233 251 146 280 321 314 324 316 289 312 304 276 284 270 268 273 266 275 285 276 268 261 257 265 265 263 263 258 256 250 243 237 228 236 236 227
352 349 356 354 331 329 324 319 268 262 73 34 330 322 318 312 315 332 320 309 309 310 293 297 262 224 243 264 222 233 248 263 254 237 255 264 248 251 260 239 236 222 228 231 222
353 352 359 359 341 344 343 274 275 44 312 338 324 312 300 342 323 325 317 324 288 293 298 311 274 195 191 281 302 275 262 253 279 278 282 299 250 245 236 265 260 238 229 213 200
352 356 355 343 349 352 307 297 341 358 1 321 318 298 297 318 327 312 315 290 298 222 300 308 256 299 281 286 266 261 244 255 268 266 272 267 277 265 252 238 234 239 225 198 185
351 28 351 350 355 346 303 302 314 355 336 311 305 316 318 321 320 337 301 350 306 267 293 310 291 283 303 285 259 242 267 263 225 268 262 252 266 283 310 230 226 222 223 215 207
354 319 336 355 16 6 35 323 317 333 335 325 309 303 310 318 314 306 272 306 309 294 290 284 250 283 296 276 268 214 221 236 274 256 271 291 303 304 53 327 241 218 216 216 207
359 315 343 12 352 2 5 337 315 304 302 301 283 278 273 302 281 285 263 282 296 312 282 292 296 284 282 280 269 260 270 241 245 259 247 291 291 309 269 322 204 299 219 218 220
335 300 342 13 21 5 342 312 291 304 318 320 294 273 312 297 300 264 280 313 303 290 258 284 244 291 295 178 193 235 241 250 262 240 258 273 259 307 70 136 61 338 176 208 220
337 325 9 39 65 344 350 333 335 329 316 283 288 296 300 300 274 274 284 308 310 285 280 286 233 236 261 272 280 277 257 258 266 267 260 246 255 245 239 282 282 334 319 258 190
357 29 346 322 355 339 317 300 326 348 314 303 287 281 309 282 301 269 308 306 298 296 271 252 262 256 256 259 269 270 277 272 259 255 258 270 270 269 279 276 267 289 290 279 256
356 344 318 293 305 313 165 340 322 333 302 303 283 306 310 291 281 288 298 297 268 303 308 256 278 293 285 277 268 277 278 290 273 257 262 262 266 271 268 266 264 266 268 253 235
358 347 344 292 316 296 10 330 308 319 292 262 292 301 297 292 310 294 284 275 255 258 275 274 263 296 284 311 310 276 72 313 293 279 269 271 289 315 270 265 244 229 241 235 227